QPF
0.01 0.01 0.02 0.02 0.00 0.00 0.00 0.00 0.00 0.00 0.00 0.00 0.00 0.00 0.00 0.00 0.00 0.00 0.00 0.00 0.01 0.01 0.02 0.02 0.02 0.02 0.02 0.02 0.02 0.02 0.01 0.02 0.03 0.03 0.04 0.04 0.05 0.07 0.07 0.05 0.03 0.02 0.05
0.00 0.01 0.02 0.01 0.00 0.00 0.00 0.00 0.00 0.00 0.00 0.00 0.00 0.00 0.00 0.01 0.00 0.00 0.01 0.01 0.01 0.01 0.01 0.01 0.01 0.01 0.01 0.01 0.01 0.01 0.01 0.02 0.03 0.05 0.06 0.05 0.07 0.08 0.07 0.05 0.04 0.04 0.05
0.00 0.00 0.01 0.01 0.00 0.00 0.00 0.00 0.00 0.00 0.00 0.00 0.00 0.00 0.00 0.00 0.00 0.00 0.01 0.01 0.01 0.01 0.01 0.01 0.01 0.01 0.01 0.01 0.01 0.01 0.02 0.02 0.04 0.04 0.04 0.02 0.04 0.06 0.07 0.07 0.08 0.07 0.08
0.00 0.00 0.00 0.01 0.00 0.00 0.00 0.00 0.00 0.00 0.00 0.00 0.00 0.00 0.00 0.00 0.00 0.01 0.01 0.01 0.01 0.01 0.01 0.01 0.01 0.01 0.01 0.01 0.01 0.01 0.02 0.03 0.03 0.02 0.01 0.01 0.01 0.04 0.06 0.06 0.05 0.04 0.05
0.00 0.00 0.00 0.01 0.00 0.00 0.00 0.00 0.00 0.00 0.00 0.00 0.00 0.00 0.00 0.00 0.01 0.01 0.01 0.01 0.01 0.01 0.01 0.01 0.01 0.01 0.01 0.01 0.01 0.02 0.03 0.03 0.03 0.01 0.00 0.01 0.01 0.04 0.04 0.03 0.02 0.03 0.04
0.00 0.00 0.00 0.01 0.00 0.00 0.00 0.00 0.00 0.00 0.00 0.00 0.00 0.01 0.01 0.01 0.01 0.01 0.01 0.01 0.01 0.01 0.01 0.01 0.01 0.01 0.01 0.01 0.01 0.02 0.04 0.06 0.03 0.01 0.00 0.01 0.01 0.03 0.03 0.03 0.03 0.03 0.03
0.01 0.00 0.00 0.01 0.01 0.00 0.01 0.01 0.00 0.00 0.01 0.01 0.01 0.01 0.01 0.01 0.01 0.01 0.01 0.01 0.01 0.00 0.00 0.01 0.01 0.01 0.01 0.01 0.02 0.03 0.05 0.06 0.02 0.01 0.01 0.01 0.01 0.03 0.03 0.03 0.04 0.03 0.03
0.01 0.01 0.01 0.01 0.01 0.00 0.01 0.01 0.01 0.01 0.01 0.01 0.01 0.01 0.02 0.01 0.01 0.01 0.01 0.01 0.01 0.01 0.01 0.01 0.01 0.01 0.01 0.01 0.02 0.02 0.04 0.04 0.02 0.01 0.01 0.01 0.01 0.02 0.03 0.03 0.02 0.02 0.02
0.02 0.02 0.01 0.01 0.01 0.01 0.02 0.02 0.02 0.02 0.02 0.01 0.01 0.01 0.02 0.02 0.01 0.01 0.01 0.01 0.01 0.01 0.01 0.01 0.01 0.01 0.01 0.02 0.02 0.02 0.04 0.06 0.03 0.02 0.01 0.01 0.02 0.02 0.02 0.02 0.03 0.02 0.02
0.05 0.06 0.04 0.03 0.03 0.02 0.02 0.02 0.02 0.02 0.02 0.02 0.02 0.02 0.03 0.02 0.02 0.03 0.02 0.02 0.02 0.01 0.01 0.01 0.01 0.01 0.01 0.01 0.02 0.03 0.05 0.05 0.02 0.02 0.01 0.01 0.02 0.02 0.02 0.02 0.02 0.02 0.01
0.10 0.10 0.07 0.04 0.03 0.03 0.04 0.03 0.03 0.03 0.03 0.03 0.03 0.03 0.03 0.02 0.02 0.02 0.01 0.02 0.02 0.02 0.01 0.01 0.02 0.03 0.02 0.02 0.02 0.03 0.03 0.02 0.02 0.02 0.02 0.02 0.03 0.02 0.03 0.02 0.02 0.02 0.01
0.08 0.09 0.07 0.05 0.04 0.04 0.04 0.04 0.04 0.03 0.03 0.03 0.03 0.03 0.02 0.01 0.01 0.01 0.01 0.02 0.02 0.03 0.03 0.03 0.03 0.03 0.02 0.01 0.01 0.02 0.02 0.02 0.02 0.02 0.02 0.03 0.03 0.03 0.04 0.03 0.02 0.01 0.01
0.07 0.07 0.07 0.04 0.04 0.03 0.03 0.02 0.02 0.03 0.03 0.03 0.03 0.02 0.01 0.01 0.01 0.01 0.01 0.03 0.04 0.03 0.02 0.02 0.03 0.02 0.02 0.02 0.02 0.02 0.02 0.03 0.02 0.03 0.03 0.05 0.04 0.04 0.05 0.04 0.03 0.02 0.02
0.13 0.12 0.10 0.09 0.06 0.04 0.02 0.02 0.02 0.02 0.02 0.02 0.02 0.01 0.01 0.01 0.01 0.01 0.01 0.01 0.03 0.02 0.01 0.02 0.02 0.03 0.03 0.02 0.02 0.02 0.02 0.02 0.03 0.04 0.03 0.06 0.04 0.04 0.05 0.06 0.05 0.04 0.04
0.19 0.12 0.08 0.08 0.08 0.05 0.04 0.04 0.03 0.03 0.02 0.01 0.01 0.01 0.01 0.01 0.02 0.02 0.01 0.01 0.01 0.01 0.01 0.01 0.02 0.02 0.03 0.02 0.02 0.02 0.03 0.03 0.03 0.03 0.03 0.06 0.05 0.06 0.07 0.07 0.08 0.08 0.06
0.17 0.12 0.08 0.07 0.07 0.06 0.05 0.05 0.05 0.03 0.02 0.01 0.01 0.02 0.01 0.01 0.01 0.02 0.02 0.01 0.01 0.01 0.01 0.01 0.01 0.01 0.01 0.02 0.02 0.03 0.04 0.04 0.03 0.03 0.04 0.05 0.06 0.07 0.10 0.10 0.09 0.09 0.09
0.20 0.16 0.12 0.10 0.09 0.08 0.09 0.08 0.07 0.05 0.02 0.01 0.02 0.02 0.02 0.01 0.01 0.02 0.02 0.01 0.02 0.02 0.01 0.02 0.02 0.01 0.01 0.03 0.04 0.03 0.03 0.03 0.03 0.03 0.03 0.03 0.04 0.06 0.09 0.11 0.13 0.12 0.10
0.21 0.20 0.17 0.12 0.12 0.13 0.12 0.12 0.10 0.05 0.03 0.03 0.02 0.02 0.02 0.01 0.01 0.01 0.01 0.01 0.01 0.01 0.02 0.02 0.02 0.03 0.02 0.02 0.02 0.02 0.02 0.02 0.03 0.03 0.03 0.03 0.04 0.04 0.06 0.11 0.13 0.13 0.14
0.29 0.28 0.22 0.17 0.14 0.13 0.12 0.11 0.12 0.08 0.05 0.04 0.02 0.02 0.02 0.01 0.01 0.02 0.01 0.01 0.01 0.01 0.02 0.01 0.01 0.02 0.02 0.01 0.01 0.01 0.02 0.02 0.02 0.02 0.03 0.03 0.03 0.04 0.05 0.07 0.10 0.10 0.12
0.35 0.35 0.26 0.22 0.18 0.15 0.14 0.14 0.12 0.10 0.06 0.04 0.03 0.01 0.02 0.02 0.02 0.01 0.01 0.00 0.00 0.01 0.01 0.01 0.01 0.01 0.01 0.01 0.01 0.01 0.01 0.03 0.03 0.02 0.03 0.04 0.04 0.04 0.06 0.06 0.06 0.06 0.08
0.34 0.37 0.31 0.28 0.29 0.20 0.13 0.10 0.09 0.07 0.05 0.04 0.03 0.02 0.02 0.02 0.01 0.01 0.00 0.00 0.00 0.00 0.00 0.00 0.00 0.00 0.00 0.00 0.01 0.01 0.00 0.01 0.01 0.01 0.02 0.04 0.05 0.05 0.05 0.04 0.04 0.04 0.05
0.27 0.35 0.34 0.32 0.28 0.23 0.15 0.10 0.10 0.08 0.06 0.06 0.04 0.02 0.01 0.01 0.01 0.00 0.00 0.00 0.00 0.00 0.00 0.00 0.00 0.00 0.00 0.00 0.00 0.00 0.00 0.00 0.01 0.01 0.01 0.02 0.03 0.03 0.03 0.03 0.03 0.03 0.04
0.22 0.27 0.28 0.32 0.27 0.22 0.18 0.13 0.11 0.10 0.08 0.05 0.04 0.03 0.02 0.01 0.01 0.00 0.00 0.00 0.00 0.00 0.00 0.00 0.00 0.00 0.00 0.00 0.00 0.00 0.00 0.00 0.01 0.01 0.01 0.01 0.01 0.01 0.01 0.01 0.02 0.03 0.05
0.18 0.21 0.23 0.26 0.23 0.18 0.15 0.10 0.06 0.06 0.04 0.03 0.03 0.02 0.02 0.01 0.01 0.01 0.01 0.00 0.00 0.00 0.00 0.00 0.00 0.00 0.00 0.00 0.00 0.00 0.00 0.00 0.00 0.00 0.00 0.00 0.00 0.00 0.00 0.00 0.00 0.01 0.02
0.13 0.16 0.20 0.21 0.20 0.14 0.11 0.09 0.07 0.05 0.03 0.04 0.03 0.02 0.01 0.01 0.01 0.01 0.00 0.00 0.00 0.00 0.00 0.00 0.00 0.00 0.00 0.00 0.00 0.00 0.00 0.00 0.00 0.00 0.00 0.00 0.00 0.00 0.00 0.00 0.00 0.01 0.01
0.11 0.11 0.17 0.18 0.14 0.12 0.08 0.06 0.06 0.05 0.04 0.03 0.02 0.02 0.02 0.02 0.01 0.00 0.00 0.00 0.00 0.00 0.00 0.00 0.00 0.00 0.00 0.00 0.00 0.00 0.00 0.00 0.00 0.00 0.00 0.00 0.00 0.00 0.00 0.00 0.00 0.00 0.00
MSLP
1011.02 1010.90 1010.95 1011.18 1011.52 1011.92 1012.29 1012.59 1012.78 1012.87 1012.90 1012.89 1012.91 1012.96 1013.05 1013.17 1013.29 1013.38 1013.42 1013.42 1013.40 1013.37 1013.38 1013.44 1013.56 1013.73 1013.92 1014.11 1014.27 1014.40 1014.49 1014.57 1014.65 1014.75 1014.88 1015.06 1015.26 1015.49 1015.71 1015.93 1016.12 1016.30 1016.47
1010.59 1010.58 1010.75 1011.09 1011.54 1012.01 1012.43 1012.75 1012.95 1013.05 1013.09 1013.11 1013.15 1013.24 1013.37 1013.52 1013.66 1013.76 1013.79 1013.78 1013.73 1013.69 1013.69 1013.75 1013.87 1014.04 1014.23 1014.41 1014.57 1014.69 1014.77 1014.84 1014.91 1015.02 1015.16 1015.34 1015.56 1015.79 1016.02 1016.23 1016.43 1016.62 1016.79
1010.17 1010.25 1010.52 1010.97 1011.50 1012.05 1012.53 1012.89 1013.13 1013.26 1013.33 1013.38 1013.45 1013.57 1013.73 1013.89 1014.02 1014.10 1014.12 1014.09 1014.03 1013.98 1013.97 1014.03 1014.15 1014.32 1014.51 1014.69 1014.84 1014.94 1015.03 1015.09 1015.17 1015.29 1015.44 1015.63 1015.85 1016.08 1016.31 1016.52 1016.72 1016.91 1017.10
1009.84 1009.99 1010.35 1010.87 1011.48 1012.09 1012.63 1013.04 1013.32 1013.49 1013.60 1013.68 1013.79 1013.92 1014.08 1014.23 1014.35 1014.41 1014.40 1014.35 1014.28 1014.23 1014.23 1014.30 1014.43 1014.60 1014.78 1014.95 1015.09 1015.19 1015.27 1015.35 1015.45 1015.58 1015.74 1015.94 1016.16 1016.38 1016.59 1016.79 1016.98 1017.18 1017.38
1009.67 1009.87 1010.28 1010.85 1011.51 1012.17 1012.74 1013.20 1013.52 1013.72 1013.87 1013.98 1014.11 1014.26 1014.41 1014.54 1014.63 1014.67 1014.64 1014.58 1014.51 1014.47 1014.49 1014.57 1014.71 1014.88 1015.05 1015.21 1015.34 1015.44 1015.52 1015.62 1015.74 1015.89 1016.08 1016.28 1016.50 1016.70 1016.89 1017.07 1017.25 1017.44 1017.66
1009.65 1009.89 1010.33 1010.93 1011.61 1012.28 1012.87 1013.34 1013.68 1013.92 1014.10 1014.25 1014.39 1014.55 1014.69 1014.81 1014.88 1014.90 1014.86 1014.80 1014.74 1014.73 1014.77 1014.87 1015.01 1015.18 1015.35 1015.49 1015.60 1015.70 1015.79 1015.90 1016.05 1016.23 1016.43 1016.65 1016.85 1017.04 1017.20 1017.35 1017.51 1017.70 1017.94
1009.77 1010.04 1010.50 1011.10 1011.77 1012.42 1012.99 1013.46 1013.81 1014.06 1014.26 1014.44 1014.62 1014.79 1014.94 1015.06 1015.12 1015.13 1015.09 1015.04 1015.01 1015.02 1015.08 1015.20 1015.35 1015.51 1015.66 1015.78 1015.88 1015.97 1016.06 1016.19 1016.37 1016.57 1016.80 1017.03 1017.23 1017.39 1017.52 1017.64 1017.78 1017.96 1018.20
1009.99 1010.28 1010.75 1011.34 1011.97 1012.57 1013.10 1013.53 1013.87 1014.13 1014.36 1014.57 1014.78 1014.99 1015.16 1015.29 1015.36 1015.38 1015.35 1015.32 1015.31 1015.35 1015.43 1015.56 1015.71 1015.86 1015.99 1016.08 1016.16 1016.23 1016.33 1016.48 1016.67 1016.91 1017.16 1017.39 1017.59 1017.73 1017.84 1017.93 1018.04 1018.21 1018.45
1010.24 1010.57 1011.04 1011.60 1012.17 1012.71 1013.18 1013.57 1013.88 1014.15 1014.41 1014.66 1014.92 1015.17 1015.38 1015.54 1015.63 1015.67 1015.66 1015.65 1015.66 1015.71 1015.81 1015.94 1016.09 1016.21 1016.31 1016.38 1016.42 1016.48 1016.58 1016.73 1016.94 1017.20 1017.47 1017.71 1017.91 1018.05 1018.14 1018.21 1018.30 1018.45 1018.69
1010.50 1010.86 1011.33 1011.85 1012.37 1012.84 1013.24 1013.58 1013.87 1014.15 1014.43 1014.74 1015.05 1015.36 1015.62 1015.82 1015.94 1016.00 1016.01 1016.01 1016.04 1016.10 1016.20 1016.32 1016.45 1016.55 1016.62 1016.66 1016.68 1016.72 1016.80 1016.95 1017.17 1017.44 1017.72 1017.98 1018.18 1018.32 1018.41 1018.47 1018.54 1018.68 1018.91
1010.73 1011.13 1011.60 1012.09 1012.56 1012.96 1013.31 1013.60 1013.87 1014.16 1014.47 1014.83 1015.21 1015.57 1015.89 1016.13 1016.28 1016.36 1016.38 1016.39 1016.42 1016.47 1016.57 1016.68 1016.79 1016.87 1016.91 1016.92 1016.92 1016.94 1017.01 1017.15 1017.37 1017.64 1017.92 1018.19 1018.40 1018.55 1018.64 1018.70 1018.78 1018.91 1019.12
1010.91 1011.34 1011.83 1012.30 1012.72 1013.08 1013.38 1013.64 1013.90 1014.20 1014.56 1014.97 1015.40 1015.82 1016.18 1016.45 1016.63 1016.72 1016.75 1016.76 1016.78 1016.82 1016.91 1017.01 1017.10 1017.17 1017.19 1017.19 1017.17 1017.17 1017.22 1017.35 1017.55 1017.80 1018.08 1018.35 1018.57 1018.73 1018.84 1018.91 1019.00 1019.14 1019.34
1011.03 1011.50 1011.99 1012.46 1012.86 1013.19 1013.47 1013.72 1013.98 1014.30 1014.69 1015.14 1015.61 1016.07 1016.46 1016.76 1016.95 1017.05 1017.08 1017.08 1017.09 1017.14 1017.21 1017.30 1017.39 1017.45 1017.47 1017.46 1017.44 1017.43 1017.46 1017.57 1017.74 1017.97 1018.23 1018.49 1018.71 1018.88 1019.01 1019.12 1019.22 1019.37 1019.58
1011.09 1011.59 1012.09 1012.56 1012.96 1013.29 1013.56 1013.82 1014.10 1014.44 1014.85 1015.32 1015.82 1016.29 1016.70 1017.01 1017.21 1017.31 1017.35 1017.35 1017.36 1017.40 1017.48 1017.57 1017.67 1017.74 1017.77 1017.77 1017.74 1017.73 1017.75 1017.82 1017.96 1018.16 1018.38 1018.62 1018.84 1019.02 1019.17 1019.30 1019.44 1019.60 1019.81
1011.07 1011.58 1012.10 1012.58 1013.00 1013.34 1013.64 1013.93 1014.23 1014.60 1015.02 1015.50 1016.00 1016.47 1016.87 1017.18 1017.38 1017.49 1017.54 1017.56 1017.58 1017.64 1017.72 1017.83 1017.93 1018.02 1018.07 1018.09 1018.08 1018.07 1018.07 1018.12 1018.22 1018.37 1018.56 1018.76 1018.96 1019.15 1019.31 1019.47 1019.63 1019.82 1020.04
1010.95 1011.47 1012.00 1012.50 1012.95 1013.34 1013.69 1014.02 1014.36 1014.75 1015.18 1015.65 1016.13 1016.58 1016.96 1017.26 1017.47 1017.59 1017.66 1017.71 1017.76 1017.84 1017.95 1018.07 1018.20 1018.31 1018.39 1018.42 1018.43 1018.42 1018.42 1018.45 1018.51 1018.62 1018.76 1018.92 1019.09 1019.26 1019.43 1019.60 1019.78 1019.99 1020.21
1010.75 1011.26 1011.80 1012.33 1012.83 1013.28 1013.69 1014.08 1014.47 1014.88 1015.31 1015.76 1016.21 1016.62 1016.98 1017.27 1017.49 1017.64 1017.74 1017.83 1017.92 1018.03 1018.17 1018.32 1018.46 1018.59 1018.68 1018.74 1018.77 1018.77 1018.77 1018.78 1018.81 1018.87 1018.96 1019.07 1019.20 1019.35 1019.51 1019.68 1019.88 1020.09 1020.32
1010.50 1010.99 1011.53 1012.09 1012.64 1013.16 1013.65 1014.11 1014.56 1014.99 1015.43 1015.85 1016.26 1016.64 1016.97 1017.25 1017.47 1017.65 1017.81 1017.94 1018.08 1018.23 1018.39 1018.55 1018.70 1018.84 1018.94 1019.01 1019.05 1019.07 1019.08 1019.08 1019.09 1019.12 1019.16 1019.22 1019.31 1019.42 1019.55 1019.71 1019.91 1020.12 1020.35
1010.25 1010.71 1011.25 1011.83 1012.43 1013.02 1013.60 1014.14 1014.64 1015.11 1015.55 1015.95 1016.32 1016.66 1016.96 1017.23 1017.47 1017.69 1017.89 1018.08 1018.27 1018.44 1018.62 1018.77 1018.92 1019.04 1019.14 1019.22 1019.27 1019.30 1019.32 1019.33 1019.33 1019.34 1019.34 1019.36 1019.40 1019.46 1019.57 1019.70 1019.88 1020.08 1020.30
1010.06 1010.49 1011.01 1011.60 1012.25 1012.91 1013.56 1014.18 1014.75 1015.26 1015.70 1016.09 1016.42 1016.73 1017.01 1017.27 1017.53 1017.78 1018.03 1018.26 1018.48 1018.67 1018.84 1018.98 1019.10 1019.20 1019.28 1019.35 1019.41 1019.46 1019.50 1019.52 1019.53 1019.53 1019.51 1019.50 1019.49 1019.51 1019.57 1019.68 1019.82 1020.01 1020.22
1010.00 1010.38 1010.87 1011.47 1012.14 1012.86 1013.58 1014.27 1014.90 1015.45 1015.90 1016.28 1016.59 1016.87 1017.13 1017.39 1017.66 1017.94 1018.22 1018.48 1018.72 1018.91 1019.06 1019.17 1019.24 1019.30 1019.36 1019.41 1019.48 1019.55 1019.61 1019.67 1019.70 1019.70 1019.68 1019.65 1019.61 1019.59 1019.61 1019.67 1019.78 1019.94 1020.13
1010.12 1010.45 1010.90 1011.47 1012.15 1012.90 1013.67 1014.41 1015.09 1015.67 1016.15 1016.53 1016.83 1017.09 1017.34 1017.60 1017.87 1018.17 1018.46 1018.74 1018.97 1019.15 1019.27 1019.33 1019.36 1019.38 1019.40 1019.44 1019.51 1019.60 1019.70 1019.79 1019.86 1019.89 1019.87 1019.83 1019.77 1019.72 1019.70 1019.72 1019.80 1019.93 1020.09
1010.42 1010.69 1011.09 1011.62 1012.28 1013.02 1013.81 1014.59 1015.31 1015.92 1016.42 1016.80 1017.11 1017.36 1017.60 1017.85 1018.13 1018.43 1018.72 1018.99 1019.22 1019.37 1019.45 1019.48 1019.46 1019.44 1019.43 1019.46 1019.54 1019.65 1019.79 1019.92 1020.03 1020.09 1020.10 1020.07 1020.00 1019.93 1019.88 1019.86 1019.90 1019.99 1020.13
1010.87 1011.09 1011.41 1011.88 1012.49 1013.21 1014.00 1014.78 1015.52 1016.16 1016.67 1017.08 1017.39 1017.64 1017.87 1018.12 1018.39 1018.68 1018.96 1019.22 1019.43 1019.56 1019.61 1019.60 1019.55 1019.50 1019.48 1019.50 1019.59 1019.73 1019.90 1020.08 1020.23 1020.33 1020.37 1020.36 1020.30 1020.22 1020.14 1020.10 1020.10 1020.15 1020.25
1011.40 1011.56 1011.82 1012.22 1012.76 1013.43 1014.17 1014.95 1015.68 1016.34 1016.87 1017.29 1017.62 1017.88 1018.11 1018.35 1018.61 1018.88 1019.15 1019.39 1019.58 1019.69 1019.72 1019.70 1019.64 1019.58 1019.56 1019.59 1019.69 1019.86 1020.06 1020.27 1020.46 1020.60 1020.67 1020.68 1020.64 1020.56 1020.48 1020.41 1020.37 1020.38 1020.43
1011.92 1012.05 1012.24 1012.56 1013.02 1013.62 1014.32 1015.06 1015.78 1016.43 1016.99 1017.42 1017.76 1018.04 1018.27 1018.51 1018.75 1019.01 1019.26 1019.48 1019.66 1019.76 1019.80 1019.78 1019.73 1019.68 1019.68 1019.73 1019.84 1020.03 1020.25 1020.48 1020.70 1020.87 1020.97 1021.01 1020.99 1020.92 1020.84 1020.76 1020.69 1020.66 1020.65
Thickness
5782 5783 5781 5778 5776 5774 5773 5771 5771 5770 5769 5768 5768 5766 5765 5764 5764 5763 5762 5761 5761 5760 5759 5758 5757 5757 5756 5754 5753 5753 5752 5750 5749 5748 5747 5746 5744 5743 5742 5740 5739 5738 5736
5789 5784 5781 5778 5775 5773 5771 5769 5768 5768 5767 5766 5765 5764 5763 5762 5761 5761 5760 5759 5759 5758 5757 5756 5755 5754 5753 5752 5751 5750 5749 5749 5747 5747 5745 5744 5742 5741 5740 5739 5738 5736 5735
5789 5784 5780 5777 5774 5771 5769 5768 5766 5765 5764 5763 5763 5762 5761 5760 5759 5758 5758 5757 5756 5755 5754 5753 5752 5751 5750 5750 5749 5748 5747 5747 5746 5745 5743 5742 5740 5740 5739 5738 5736 5734 5733
5787 5783 5779 5776 5773 5770 5768 5766 5765 5763 5762 5761 5760 5759 5759 5758 5757 5756 5755 5755 5754 5753 5752 5751 5750 5749 5748 5747 5746 5746 5745 5745 5744 5742 5741 5740 5739 5738 5737 5736 5734 5732 5731
5785 5781 5778 5774 5771 5768 5766 5764 5763 5761 5760 5759 5758 5757 5756 5755 5754 5753 5752 5752 5751 5750 5749 5748 5747 5746 5745 5745 5744 5743 5743 5742 5742 5741 5739 5738 5738 5736 5735 5734 5732 5731 5729
5782 5780 5776 5773 5769 5766 5764 5762 5760 5758 5757 5756 5755 5755 5754 5752 5751 5750 5749 5749 5748 5747 5746 5745 5744 5743 5743 5742 5742 5741 5741 5740 5739 5738 5737 5737 5736 5735 5733 5732 5731 5729 5728
5778 5777 5774 5771 5768 5764 5762 5760 5757 5756 5755 5754 5753 5752 5751 5750 5748 5747 5746 5746 5745 5744 5743 5742 5742 5741 5740 5740 5740 5739 5739 5738 5737 5736 5735 5734 5733 5732 5731 5730 5729 5728 5726
5776 5774 5771 5768 5765 5763 5760 5758 5755 5754 5752 5751 5750 5749 5748 5747 5746 5745 5744 5742 5742 5741 5740 5740 5739 5739 5738 5737 5737 5737 5737 5736 5735 5733 5733 5732 5731 5730 5729 5728 5727 5726 5725
5772 5770 5768 5765 5762 5760 5758 5755 5753 5752 5750 5749 5748 5747 5746 5744 5743 5742 5741 5739 5738 5738 5737 5737 5736 5736 5735 5735 5735 5735 5734 5733 5732 5731 5730 5729 5729 5728 5727 5726 5725 5724 5723
5768 5766 5765 5762 5760 5757 5755 5753 5751 5749 5748 5747 5746 5745 5743 5742 5740 5739 5738 5737 5736 5735 5735 5734 5734 5733 5733 5732 5732 5732 5732 5731 5729 5728 5727 5727 5726 5726 5725 5724 5723 5722 5721
5762 5762 5761 5760 5757 5755 5753 5750 5748 5747 5746 5744 5743 5742 5741 5739 5738 5736 5735 5734 5733 5733 5732 5732 5731 5730 5730 5730 5730 5729 5728 5728 5727 5726 5725 5724 5723 5723 5722 5722 5721 5720 5719
5757 5757 5756 5756 5755 5752 5750 5748 5746 5745 5743 5742 5740 5739 5738 5736 5735 5733 5732 5731 5731 5730 5730 5729 5729 5728 5727 5727 5727 5726 5725 5725 5724 5723 5723 5722 5721 5720 5720 5719 5719 5718 5717
5756 5754 5753 5752 5751 5749 5747 5745 5743 5742 5740 5739 5737 5736 5735 5733 5732 5731 5730 5729 5728 5728 5727 5727 5726 5725 5725 5724 5724 5723 5723 5723 5722 5722 5721 5720 5719 5718 5718 5717 5716 5716 5715
5752 5750 5750 5749 5748 5746 5744 5742 5741 5739 5738 5736 5735 5734 5732 5731 5729 5728 5727 5726 5726 5725 5725 5724 5724 5723 5722 5722 5722 5722 5721 5720 5720 5720 5719 5718 5717 5716 5716 5715 5714 5714 5713
5748 5747 5746 5745 5744 5743 5741 5740 5738 5737 5736 5734 5733 5731 5730 5728 5727 5726 5724 5724 5723 5723 5722 5722 5722 5721 5720 5720 5720 5720 5719 5719 5718 5718 5718 5717 5716 5715 5714 5713 5712 5712 5711
5745 5744 5743 5742 5742 5740 5738 5736 5735 5735 5734 5732 5731 5730 5728 5727 5725 5724 5722 5722 5721 5721 5721 5721 5720 5720 5719 5718 5718 5718 5718 5717 5716 5716 5716 5715 5714 5713 5712 5711 5710 5710 5709
5741 5740 5739 5739 5739 5738 5736 5734 5732 5732 5731 5730 5729 5728 5726 5725 5724 5722 5721 5720 5720 5720 5720 5719 5718 5718 5717 5716 5716 5716 5716 5715 5714 5714 5713 5713 5712 5711 5710 5710 5709 5708 5707
5738 5736 5736 5738 5735 5734 5733 5731 5730 5729 5729 5728 5727 5726 5725 5724 5723 5721 5720 5719 5719 5719 5718 5718 5716 5715 5714 5714 5713 5714 5714 5713 5713 5712 5711 5710 5710 5709 5709 5708 5707 5706 5705
5735 5733 5733 5734 5733 5732 5731 5729 5727 5727 5726 5725 5725 5724 5723 5723 5722 5720 5719 5718 5718 5717 5716 5717 5714 5713 5712 5711 5712 5712 5712 5711 5711 5710 5709 5708 5708 5707 5706 5706 5704 5704 5703
5733 5731 5730 5730 5729 5729 5728 5726 5724 5723 5723 5723 5722 5722 5722 5721 5720 5719 5718 5717 5716 5716 5715 5714 5712 5711 5710 5710 5710 5709 5708 5709 5709 5708 5707 5706 5705 5705 5704 5703 5702 5701 5701
5730 5728 5727 5727 5726 5726 5725 5722 5721 5720 5720 5720 5720 5720 5720 5720 5719 5718 5716 5715 5715 5714 5713 5712 5711 5709 5708 5708 5706 5704 5704 5705 5705 5705 5705 5704 5703 5702 5702 5701 5700 5699 5698
5728 5726 5725 5725 5725 5724 5724 5723 5722 5720 5718 5718 5718 5718 5719 5718 5717 5717 5715 5714 5713 5712 5711 5711 5710 5708 5706 5705 5704 5700 5697 5698 5700 5701 5701 5701 5700 5700 5699 5698 5697 5696 5695
5726 5725 5724 5723 5724 5723 5722 5721 5719 5717 5715 5714 5715 5715 5716 5717 5716 5716 5714 5713 5712 5711 5710 5710 5709 5708 5705 5703 5703 5701 5695 5692 5693 5696 5696 5696 5696 5696 5696 5695 5694 5694 5693
5727 5725 5723 5722 5722 5722 5721 5720 5718 5716 5714 5714 5714 5714 5714 5715 5715 5714 5713 5712 5711 5710 5709 5709 5708 5708 5706 5702 5701 5700 5699 5697 5693 5689 5691 5692 5693 5692 5692 5692 5691 5691 5690
5728 5725 5722 5721 5720 5721 5721 5720 5718 5716 5715 5713 5713 5712 5712 5712 5713 5713 5712 5711 5710 5709 5708 5708 5707 5706 5705 5703 5701 5699 5696 5694 5693 5690 5686 5686 5688 5688 5688 5688 5688 5687 5687
5727 5724 5722 5720 5720 5721 5720 5720 5718 5717 5714 5712 5711 5710 5710 5710 5710 5711 5710 5709 5708 5707 5707 5706 5705 5705 5704 5702 5700 5699 5696 5694 5690 5688 5684 5681 5681 5682 5683 5684 5684 5684 5683